| time (UTC) | temp F | wind direction | speed knots | gust knots | rain 1hr in | rain 24hr in | rain mn in | humidity % | barometer mb |
| 20260507174652 | 62 | 310 | 7.0 | 13.9 | 0.00 | 0.00 | 0.00 | 46 | 1018.7 |
| 20260507171538 | 60 | 337 | 6.1 | 12.2 | 0.00 | 0.00 | 0.00 | 52 | 1018.9 |
| 20260507170033 | 59 | 346 | 5.2 | 9.6 | 0.00 | 0.00 | 0.00 | 55 | 1018.8 |
| 20260507164535 | 58 | 357 | 6.1 | 11.3 | 0.00 | 0.00 | 0.00 | 56 | 1018.8 |
| 20260507163037 | 58 | 7 | 7.0 | 12.2 | 0.00 | 0.00 | 0.00 | 58 | 1018.8 |
| 20260507161539 | 58 | 360 | 5.2 | 10.4 | 0.00 | 0.00 | 0.00 | 58 | 1018.8 |
| 20260507160032 | 57 | 12 | 5.2 | 11.3 | 0.00 | 0.00 | 0.00 | 59 | 1018.8 |
| 20260507154534 | 56 | 20 | 7.0 | 11.3 | 0.00 | 0.00 | 0.00 | 60 | 1018.9 |
| 20260507153032 | 56 | 3 | 4.3 | 9.6 | 0.00 | 0.00 | 0.00 | 61 | 1018.9 |
| 20260507150047 | 53 | 355 | 3.5 | 7.0 | 0.00 | 0.00 | 0.00 | 70 | 1019.0 |
| 20260507144644 | 53 | 4 | 4.3 | 7.8 | 0.00 | 0.00 | 0.00 | 72 | 1019.0 |
| 20260507141642 | 51 | 77 | 1.7 | 3.5 | 0.00 | 0.00 | 0.00 | 75 | 1018.9 |
| 20260507140035 | 52 | 33 | 2.6 | 6.1 | 0.00 | 0.00 | 0.00 | 72 | 1018.7 |
| 20260507134533 | 52 | 317 | 2.6 | 6.1 | 0.00 | 0.00 | 0.00 | 72 | 1018.7 |
| 20260507133041 | 52 | 325 | 3.5 | 7.0 | 0.00 | 0.00 | 0.00 | 72 | 1018.7 |
| 20260507131536 | 52 | 318 | 4.3 | 13.9 | 0.00 | 0.00 | 0.00 | 73 | 1018.7 |
| 20260507130036 | 52 | 333 | 4.3 | 11.3 | 0.00 | 0.00 | 0.00 | 73 | 1018.7 |
| 20260507123031 | 54 | 325 | 4.3 | 13.0 | 0.00 | 0.00 | 0.00 | 70 | 1018.7 |
| 20260507121532 | 54 | 305 | 5.2 | 13.9 | 0.00 | 0.00 | 0.00 | 70 | 1018.6 |
| 20260507114535 | 54 | 278 | 4.3 | 17.4 | 0.00 | 0.00 | 0.00 | 69 | 1018.6 |
| 20260507113033 | 55 | 264 | 6.1 | 17.4 | 0.00 | 0.00 | 0.00 | 69 | 1018.6 |
| 20260507111652 | 55 | 252 | 6.1 | 15.6 | 0.00 | 0.00 | 0.00 | 70 | 1018.6 |
| 20260507110108 | 54 | 265 | 4.3 | 15.6 | 0.00 | 0.00 | 0.00 | 70 | 1018.6 |
| 20260507103037 | 55 | 255 | 4.3 | 14.8 | 0.00 | 0.00 | 0.00 | 69 | 1018.5 |
| 20260507101537 | 55 | 260 | 4.3 | 16.5 | 0.00 | 0.00 | 0.00 | 67 | 1018.6 |
| 20260507100049 | 56 | 246 | 2.6 | 8.7 | 0.00 | 0.00 | 0.00 | 66 | 1018.7 |
| 20260507093036 | 56 | 256 | 3.5 | 10.4 | 0.00 | 0.00 | 0.00 | 65 | 1018.9 |
| 20260507091530 | 56 | 258 | 3.5 | 8.7 | 0.00 | 0.00 | 0.00 | 66 | 1019.0 |
| 20260507083033 | 55 | 240 | 1.7 | 7.8 | 0.00 | 0.00 | 0.00 | 70 | 1019.5 |
| 20260507081536 | 56 | 299 | 3.5 | 9.6 | 0.00 | 0.00 | 0.00 | 70 | 1019.5 |
| 20260507080031 | 56 | 298 | 5.2 | 11.3 | 0.00 | 0.00 | 0.00 | 71 | 1019.5 |
| 20260507074536 | 56 | 311 | 4.3 | 8.7 | 0.00 | 0.00 | 0.00 | 70 | 1019.6 |
| 20260507071534 | 56 | 299 | 4.3 | 11.3 | 0.00 | 0.00 | 0.00 | 69 | 1019.5 |
| 20260507070035 | 56 | 289 | 1.7 | 7.0 | 0.00 | 0.00 | 0.00 | 70 | 1019.5 |
| 20260507064538 | 56 | 339 | 2.6 | 10.4 | 0.00 | 0.00 | 0.00 | 70 | 1019.6 |
| 20260507063036 | 57 | 312 | 2.6 | 8.7 | 0.00 | 0.00 | 0.00 | 69 | 1019.6 |
| 20260507054536 | 59 | 310 | 2.6 | 7.0 | 0.00 | 0.00 | 0.00 | 65 | 1020.0 |
| 20260507051535 | 59 | 320 | 1.7 | 13.9 | 0.00 | 0.00 | 0.00 | 65 | 1020.0 |
| 20260507050036 | 58 | 2 | 2.6 | 8.7 | 0.00 | 0.00 | 0.00 | 66 | 1020.0 |
| 20260507044610 | 58 | 4 | 2.6 | 7.0 | 0.00 | 0.00 | 0.00 | 63 | 1019.9 |
| 20260507043036 | 59 | 333 | 2.6 | 6.1 | 0.00 | 0.00 | 0.00 | 60 | 1019.8 |
| 20260507041532 | 59 | 99 | 3.5 | 9.6 | 0.00 | 0.00 | 0.00 | 60 | 1019.7 |
| 20260507040045 | 59 | 74 | 0.9 | 4.3 | 0.00 | 0.00 | 0.00 | 60 | 1019.7 |
| 20260507034532 | 60 | 131 | 2.6 | 7.0 | 0.00 | 0.00 | 0.00 | 59 | 1019.6 |
| 20260507033035 | 61 | 2 | 2.6 | 8.7 | 0.00 | 0.00 | 0.00 | 59 | 1019.6 |
| 20260507024535 | 63 | 291 | 1.7 | 8.7 | 0.00 | 0.00 | 0.00 | 57 | 1019.7 |
| 20260507023109 | 64 | 288 | 4.3 | 13.9 | 0.00 | 0.00 | 0.00 | 55 | 1019.7 |
| 20260507021537 | 65 | 254 | 5.2 | 12.2 | 0.00 | 0.00 | 0.00 | 53 | 1019.6 |
| 20260507020037 | 66 | 288 | 5.2 | 13.9 | 0.00 | 0.00 | 0.00 | 52 | 1019.3 |
| 20260507014533 | 66 | 289 | 4.3 | 11.3 | 0.00 | 0.00 | 0.00 | 51 | 1019.2 |
| 20260507013145 | 67 | 302 | 6.1 | 15.6 | 0.00 | 0.00 | 0.00 | 49 | 1019.1 |
| 20260507011535 | 67 | 300 | 6.1 | 13.9 | 0.00 | 0.00 | 0.00 | 47 | 1019.1 |
| 20260507004531 | 68 | 300 | 6.1 | 14.8 | 0.00 | 0.00 | 0.00 | 43 | 1019.0 |
| 20260507003037 | 70 | 295 | 5.2 | 13.0 | 0.00 | 0.00 | 0.00 | 42 | 1019.0 |
| 20260507001531 | 70 | 283 | 5.2 | 13.9 | 0.00 | 0.00 | 0.00 | 42 | 1018.9 |
| 20260507000034 | 70 | 274 | 4.3 | 10.4 | 0.00 | 0.00 | 0.00 | 41 | 1018.7 |
| 20260506234536 | 71 | 292 | 6.1 | 16.5 | 0.00 | 0.00 | 0.00 | 40 | 1018.6 |
| 20260506233033 | 71 | 296 | 5.2 | 12.2 | 0.00 | 0.00 | 0.00 | 39 | 1018.5 |
| 20260506230038 | 72 | 300 | 6.1 | 17.4 | 0.00 | 0.00 | 0.00 | 40 | 1018.5 |
| 20260506224535 | 72 | 293 | 6.1 | 13.0 | 0.00 | 0.00 | 0.00 | 40 | 1018.6 |
| 20260506221532 | 72 | 291 | 5.2 | 14.8 | 0.00 | 0.00 | 0.00 | 43 | 1019.0 |
| 20260506220038 | 72 | 301 | 6.1 | 16.5 | 0.00 | 0.00 | 0.00 | 43 | 1018.9 |
| 20260506214534 | 71 | 293 | 7.0 | 14.8 | 0.00 | 0.00 | 0.00 | 43 | 1018.8 |
| 20260506213110 | 72 | 301 | 7.0 | 15.6 | 0.00 | 0.00 | 0.00 | 43 | 1018.7 |
| 20260506211534 | 73 | 287 | 5.2 | 14.8 | 0.00 | 0.00 | 0.00 | 43 | 1018.8 |
| 20260506210032 | 72 | 226 | 3.5 | 12.2 | 0.00 | 0.00 | 0.00 | 44 | 1018.9 |
| 20260506203033 | 71 | 309 | 6.1 | 12.2 | 0.00 | 0.00 | 0.00 | 46 | 1018.9 |
| 20260506201536 | 71 | 311 | 5.2 | 10.4 | 0.00 | 0.00 | 0.00 | 44 | 1018.9 |
| 20260506194532 | 71 | 249 | 3.5 | 9.6 | 0.00 | 0.00 | 0.00 | 47 | 1018.9 |
| 20260506193035 | 70 | 252 | 3.5 | 11.3 | 0.00 | 0.00 | 0.00 | 50 | 1019.1 |
| 20260506190037 | 69 | 287 | 4.3 | 12.2 | 0.00 | 0.00 | 0.00 | 52 | 1019.1 |
| 20260506184535 | 69 | 302 | 6.1 | 12.2 | 0.00 | 0.00 | 0.00 | 52 | 1018.9 |
| 20260506183028 | 68 | 300 | 3.5 | 7.8 | 0.00 | 0.00 | 0.00 | 55 | 1018.9 |
| 20260506181530 | 67 | 312 | 5.2 | 11.3 | 0.00 | 0.00 | 0.00 | 57 | 1019.0 |
| 20260506180035 | 67 | 318 | 7.0 | 13.9 | 0.00 | 0.00 | 0.00 | 56 | 1019.0 |